Location: Allos
(44.2333°N, 6.6333°E)
Time: 01:19:59
(UTC+00:00)

DX 1 - Pass Details

Date: 12 May 2021
Orbit: 618 x 631 km, 98.5° (Epoch: 24 June)

Event Time Altitude Azimuth Distance (km) Brightness Sun altitude
Rises 19:27:02 0° 7° (N) 2,911 ? -6.5°
Reaches altitude 10° 19:29:17 10° 2° (N) 1,998 ? -6.8°
Maximum altitude 19:33:26 45° 290° (WNW) 845 ? -7.5°
Drops below altitude 10° 19:37:32 10° 217° (SW) 1,979 ? -8.1°
Sets 19:39:46 0° 211° (SSW) 2,880 ? -8.4°
